Hayward, CA

4:01 AM PDT on September 24, 2017 (GMT -0700)
Hayward Executive

Weather History for KHWD - March, 2014

Change the Weather History Date:

Friday, March 14, 2014

  Actual Average Record
Temperature  
Mean Temperature 59 °F 56 °F  
Max Temperature 67 °F 64 °F 85 °F (2015)
Min Temperature 50 °F 47 °F 40 °F (2002)
Degree Days  
Heating Degree Days 6    
Month to date heating degree days 90  
Since 1 July heating degree days 1608  
Cooling Degree Days 0    
Month to date cooling degree days 0  
Year to date cooling degree days 0  
Growing Degree Days 8 (Base 50)    
Moisture  
Dew Point 50 °F    
Average Humidity 74    
Maximum Humidity 89    
Minimum Humidity 58    
Precipitation  
Precipitation 0.00 in - 0.70 in (2012)
Month to date precipitation 0.26  
Year to date precipitation 2.63  
Since 1 July precipitation 3.83  
Sea Level Pressure  
Sea Level Pressure 30.17 in    
Wind  
Wind Speed 4 mph (WSW)    
Max Wind Speed 12 mph    
Max Gust Speed 14 mph    
Visibility 10 miles    
Events      
T = Trace of Precipitation, MM = Missing Value Source: NWS Daily Summary

Daily Weather History Graph

Daily Weather History Graph

Search for Another Location

Airport or City:

Trip Planner

Search our weather history database for the weather conditions in past years. The results will help you decide how hot, cold, wet, or windy it might be!

Date:

Astronomy

Mar. 14, 2014 Rise Set
Actual Time 7:20 AM PDT 7:14 PM PDT
Civil Twilight 6:54 AM PDT 7:41 PM PDT
Nautical Twilight 6:24 AM PDT 8:11 PM PDT
Astronomical Twilight 5:53 AM PDT 8:42 PM PDT
Moon 5:43 PM PDT (3/14) 6:02 AM PDT (3/14)
Length of Visible Light 12h 46m
Length of Day
11h 53m
Waxing Gibbous, 96% of the Moon is Illuminated
Mar 14
Waxing Gibbous
Mar 16
Full
Mar 23
Last Quarter
Mar 30
New
Apr 7
First Quarter

Hourly Weather History & Observations

Time (PDT) Temp. Dew Point Humidity Pressure Visibility Wind Dir Wind Speed Gust Speed Precip Events Conditions
12:54 AM 52.0 °F 48.9 °F 89% 30.11 in 10.0 mi Calm Calm - N/A   Partly Cloudy
1:29 AM 51.8 °F 48.2 °F 88% 30.08 in 10.0 mi Calm Calm - N/A   Mostly Cloudy
1:37 AM 51.8 °F 48.2 °F 88% 30.09 in 10.0 mi Calm Calm - N/A   Scattered Clouds
1:54 AM 51.1 °F 48.0 °F 89% 30.12 in 10.0 mi NW 6.9 mph - N/A   Partly Cloudy
2:54 AM 52.0 °F 48.9 °F 89% 30.12 in 9.0 mi West 6.9 mph - N/A   Partly Cloudy
3:34 AM 51.8 °F 48.2 °F 88% 30.09 in 9.0 mi West 6.9 mph - N/A   Mostly Cloudy
3:54 AM 52.0 °F 48.9 °F 89% 30.12 in 10.0 mi West 9.2 mph - N/A   Overcast
4:54 AM 52.0 °F 48.0 °F 86% 30.12 in 10.0 mi West 4.6 mph - N/A   Mostly Cloudy
5:35 AM 53.6 °F 48.2 °F 82% 30.10 in 10.0 mi WSW 4.6 mph - N/A   Mostly Cloudy
5:54 AM 53.1 °F 48.0 °F 83% 30.14 in 10.0 mi SW 3.5 mph - N/A   Overcast
6:54 AM 52.0 °F 46.9 °F 83% 30.15 in 10.0 mi South 4.6 mph - N/A   Overcast
7:54 AM 51.1 °F 46.9 °F 86% 30.17 in 10.0 mi South 3.5 mph - N/A   Overcast
8:54 AM 53.1 °F 48.9 °F 86% 30.19 in 10.0 mi SSE 4.6 mph - N/A   Mostly Cloudy
9:54 AM 54.0 °F 48.0 °F 80% 30.21 in 10.0 mi Calm Calm - N/A   Overcast
10:54 AM 57.0 °F 50.0 °F 77% 30.21 in 10.0 mi Calm Calm - N/A   Partly Cloudy
11:54 AM 57.0 °F 50.0 °F 77% 30.22 in 10.0 mi WSW 5.8 mph - N/A   Clear
12:54 PM 59.0 °F 51.1 °F 75% 30.22 in 10.0 mi Variable 4.6 mph - N/A   Clear
1:54 PM 62.1 °F 51.1 °F 67% 30.21 in 10.0 mi Calm Calm - N/A   Clear
2:54 PM 63.0 °F 51.1 °F 65% 30.19 in 10.0 mi West 9.2 mph - N/A   Clear
3:54 PM 66.0 °F 51.1 °F 59% 30.19 in 10.0 mi West 8.1 mph - N/A   Clear
4:54 PM 66.0 °F 52.0 °F 60% 30.18 in 10.0 mi West 10.4 mph - N/A   Clear
5:54 PM 63.0 °F 53.1 °F 70% 30.19 in 10.0 mi WNW 11.5 mph - N/A   Clear
6:54 PM 60.1 °F 53.1 °F 78% 30.20 in 10.0 mi West 3.5 mph - N/A   Clear
7:54 PM 57.9 °F 52.0 °F 81% 30.21 in 10.0 mi Calm Calm - N/A   Clear
8:54 PM 59.0 °F 53.1 °F 81% 30.23 in 10.0 mi Calm Calm - N/A   Clear
9:54 PM 57.0 °F 52.0 °F 83% 30.25 in 10.0 mi Calm Calm - N/A   Clear
10:54 PM 55.9 °F 51.1 °F 84% 30.25 in 10.0 mi Calm Calm - N/A   Clear
11:54 PM 55.0 °F 51.1 °F 86% 30.25 in 10.0 mi Calm Calm - N/A   Clear